Weather History for Aomori Airport, Japan

Change the Weather History Date:

Saturday, February 9, 2013

  Actual Average Record
Temperature  
Mean Temperature 20 °F -  
Max Temperature 24 °F 33 °F 41 °F (2003)
Min Temperature 17 °F 22 °F 15 °F (2012)
Degree Days  
Heating Degree Days 44    
Moisture  
Dew Point 17 °F    
Average Humidity 82    
Maximum Humidity 93    
Minimum Humidity 68    
Precipitation  
Precipitation 0.00 in - - ()
Sea Level Pressure  
Sea Level Pressure 30.02 in    
Wind  
Wind Speed 14 mph ()    
Max Wind Speed 18 mph    
Max Gust Speed -    
Visibility 3.6 miles    
Events Snow    
Averages and records for this station are not official NWS values.
T = Trace of Precipitation, MM = Missing Value Source: Averaged Metar Reports

Daily Weather History Graph

Daily Weather History Graph

Search for Another Location

Airport:

Trip Planner

Search our weather history database for the weather conditions in past years. The results will help you decide how hot, cold, wet, or windy it might be!

Date:

Astronomy

Feb. 09, 2013 Rise Set
Actual Time 6:39 AM JST 5:04 PM JST
Civil Twilight 6:10 AM JST 5:32 PM JST
Nautical Twilight 5:38 AM JST 6:05 PM JST
Astronomical Twilight 5:06 AM JST 6:37 PM JST
Moon 5:24 AM JST (2/9) 4:02 PM JST (2/9)
Length of Visible Light 11h 22m
Length of Day
10h 25m
Waning Crescent, 2% of the Moon is Illuminated
Feb 9
Waning Crescent
Feb 10
New
Feb 18
First Quarter
Feb 26
Full
Mar 5
Last Quarter

Hourly Weather History & Observations

Time (JST) Temp. Windchill Dew Point Humidity Pressure Visibility Wind Dir Wind Speed Gust Speed Precip Events Conditions
6:10 AM 19.4 °F 4.5 °F 15.8 °F 86% 29.98 in 2.5 mi SW 17.3 mph - N/A Snow Light Snow Showers
6:17 AM 21.2 °F 7.3 °F 17.6 °F 86% 29.98 in 0.7 mi WSW 16.1 mph - N/A Snow Light Snow Showers
6:30 AM 19.4 °F 5.5 °F 17.6 °F 93% 29.98 in 0.4 mi WSW 15.0 mph - N/A Snow Snow Showers
6:41 AM 19.4 °F 4.5 °F 17.6 °F 93% 29.98 in 1.6 mi WSW 17.3 mph - N/A Snow Light Snow Showers
6:47 AM 19.4 °F 4.1 °F 17.6 °F 93% 29.98 in 0.8 mi WSW 18.4 mph - N/A Snow Light Snow Showers
7:00 AM 19.4 °F 4.1 °F 17.6 °F 93% 29.98 in 4.3 mi WSW 18.4 mph - N/A Snow Light Snow Showers
7:21 AM 21.2 °F 7.3 °F 17.6 °F 86% 29.98 in 0.9 mi WSW 16.1 mph - N/A Snow Light Snow Showers
7:34 AM 21.2 °F 7.3 °F 17.6 °F 86% 29.98 in 1.6 mi West 16.1 mph - N/A Snow Light Snow Showers
7:46 AM 21.2 °F 6.4 °F 19.4 °F 93% 30.01 in 0.5 mi West 18.4 mph - N/A Snow Snow Showers
8:00 AM 21.2 °F 7.8 °F 17.6 °F 86% 30.01 in 0.7 mi WSW 15.0 mph - N/A Snow Light Snow Showers
8:12 AM 19.4 °F 6.0 °F 15.8 °F 86% 30.01 in 4.3 mi WSW 13.8 mph - N/A Snow Light Snow Showers
9:00 AM 21.2 °F 8.3 °F 17.6 °F 86% 30.01 in 5.0 mi WSW 13.8 mph - N/A Snow Light Snow Showers
9:32 AM 23.0 °F 10.6 °F 15.8 °F 74% 30.04 in 2.2 mi WSW 13.8 mph - N/A Snow Light Snow Showers
9:45 AM 23.0 °F 9.6 °F 15.8 °F 74% 30.04 in 4.3 mi West 16.1 mph - N/A Snow Light Snow Showers
10:00 AM 23.0 °F 10.1 °F 14.0 °F 68% 30.04 in 6.2 mi WSW 15.0 mph - N/A   Mostly Cloudy
10:21 AM 23.0 °F 9.2 °F 17.6 °F 80% 30.04 in 1.2 mi West 17.3 mph - N/A Snow Light Snow Showers
10:31 AM 21.2 °F 6.8 °F 17.6 °F 86% 30.04 in 3.1 mi WSW 17.3 mph - N/A Snow Light Snow Showers
10:44 AM 21.2 °F 7.3 °F 17.6 °F 86% 30.04 in 0.7 mi WSW 16.1 mph - N/A Snow Light Snow Showers
11:00 AM 23.0 °F 9.6 °F 19.4 °F 86% 30.04 in 3.1 mi WSW 16.1 mph - N/A Snow Light Snow Showers
11:12 AM 23.0 °F 9.6 °F 17.6 °F 80% 30.04 in 2.8 mi WSW 16.1 mph - N/A Snow Light Snow Showers
11:32 AM 23.0 °F 10.1 °F 19.4 °F 86% 30.04 in 3.7 mi WSW 15.0 mph - N/A Snow Light Snow Showers
12:00 PM 24.8 °F 11.9 °F 17.6 °F 74% 30.04 in 5.0 mi West 16.1 mph - N/A Snow Light Snow Showers
1:00 PM 24.8 °F 12.4 °F 15.8 °F 69% 30.01 in 6.2 mi West 15.0 mph - N/A Snow Light Snow Showers
2:00 PM 24.8 °F 11.1 °F 15.8 °F 69% 30.01 in 6.2 mi WSW 18.4 mph - N/A   Scattered Clouds
3:00 PM 24.8 °F 11.9 °F 15.8 °F 69% 30.04 in 6.2 mi WSW 16.1 mph - N/A   Scattered Clouds
4:00 PM 24.8 °F 11.5 °F 15.8 °F 69% 30.04 in 6.2 mi WSW 17.3 mph - N/A   Scattered Clouds
5:00 PM 21.2 °F 8.9 °F 15.8 °F 80% 30.04 in 6.2 mi WSW 12.7 mph - N/A   Scattered Clouds
6:00 PM 21.2 °F 9.5 °F 15.8 °F 80% 30.04 in 6.2 mi SW 11.5 mph - N/A   Scattered Clouds
7:00 PM 17.6 °F 9.3 °F 14.0 °F 86% 30.04 in 6.2 mi SSW 5.8 mph - N/A   Mostly Cloudy
8:00 PM 19.4 °F 11.5 °F 15.8 °F 86% 30.04 in 6.2 mi SSW 5.8 mph - N/A Snow Light Snow Showers
9:00 PM 21.2 °F 11.7 °F 15.8 °F 80% 30.04 in 6.2 mi SW 8.1 mph - N/A   Mostly Cloudy